Regional Weather Roundup
Issued by NWS

Home | Current Version | Previous Version | Graphics & Text | Print | Product List | Glossary On
Versions: 1 2 3 4 5 6 7 8 9 10 11 12 13 14 15 16 17 18 19 20 21 22 23 24 25 26 27 28 29 30 31 32 33 34 35 36 37 38 39 40 41 42 43 44 45 46 47 48 49 50
000
ASUS45 KABQ 220201
RWRNM
NEW MEXICO REGIONAL WEATHER ROUNDUP
NATIONAL WEATHER SERVICE ALBUQUERQUE NM
800 PM MDT MON AUG 21 2017

NOTE: "FAIR" MEANS FEW OR NO CLOUDS BELOW 12,000 FEET AGL WITH NO
       SIGNIFICANT WEATHER OR OBSTRUCTIONS TO VISION.

      THIS PRODUCT IS RELEASED AS TWO VERSIONS.  ONE VERSION NEAR
      THE TOP OF THE HOUR CONTAINING PRELIMINARY DATA FROM ALBUQUERQUE
      AND OTHER STATIONS.  A FINAL VERSION WITH ADDITIONAL DATA IS
      ISSUED ABOUT 10 MINUTES AFTER THE HOUR.

NMZ501-503-504-510>518-220300-
NORTHWEST PLATEAU/NORTHCENTRAL MOUNTAINS

CITY           SKY/WX    TMP DP  RH WIND       PRES   REMARKS
FARMINGTON     FAIR      71  48  43 N22G30    30.18R
LOS ALAMOS     FAIR      66  51  57 S3        30.32R
SANTA FE       FAIR      69  56  62 SW5       30.25R
TAOS           LGT RAIN  59  54  83 S9G17     30.35R
ANGEL FIRE     LGT RAIN  54  51  90 SE3       30.43F

$$
NMZ402-403-502-505>509-220300-
WESTCENTRAL MOUNTAINS/SOUTHWEST MOUNTAINS

CITY           SKY/WX    TMP DP  RH WIND       PRES   REMARKS
GALLUP         FAIR      70  50  49 W3        30.26R
GRANTS         FAIR      71  47  43 CALM      30.28R
SILVER CITY    MOCLDY    74  56  52 S6        30.19R

$$
NMZ407-409-411-412-220300-
SOUTHERN DESERTS

CITY           SKY/WX    TMP DP  RH WIND       PRES   REMARKS
DEMING         FAIR      80  61  52 S5        30.11S
LAS CRUCES     FAIR      77  63  62 E5        30.14S
HOLLOMAN AFB   FAIR      80  62  53 S5        30.13R
ALAMOGORDO     FAIR      77  59  53 S6        30.13R
T OR C         FAIR      80  57  45 S10       30.14R

$$
NMZ519>523-220300-
CENTRAL VALLEYS/CENTRAL HIGHLANDS

CITY           SKY/WX    TMP DP  RH WIND       PRES   REMARKS
ALBUQUERQUE    FAIR      76  55  48 SE7       30.19R
DOUBLE EAGLE   MOCLDY    72  57  60 SE5       30.22S
CLINES CORNERS FAIR      64  52  64 W6        30.31R
BELEN          NOT AVBL
SOCORRO        NOT AVBL

$$
NMZ524>526-539-540-220300-
SOUTHCENTRAL MOUNTAINS

CITY           SKY/WX    TMP DP  RH WIND       PRES   REMARKS
RUIDOSO        MOCLDY    66  59  77 SE9       30.33R

$$
NMZ527>531-220300-
NORTHEAST HIGHLANDS/NORTHEAST PLAINS

CITY           SKY/WX    TMP DP  RH WIND       PRES   REMARKS
LAS VEGAS      MOCLDY    61  53  75 CALM      30.30S
RATON          LGT RAIN  60  57  89 CALM      30.27R
CLAYTON        FAIR      69  64  84 S8        30.16R

$$
NMZ532>537-220300-
EASTCENTRAL PLAINS

CITY           SKY/WX    TMP DP  RH WIND       PRES   REMARKS
SANTA ROSA     FAIR      69  64  84 SE7       30.14S
TUCUMCARI      FAIR      74  64  71 SW8       30.09R
CANNON AFB     FAIR      72  72  98 S7        30.14F
CLOVIS AIRPORT FAIR      71  65  81 S7        30.14F

$$
NMZ028-029-538-220300-
SOUTHEAST PLAINS

CITY           SKY/WX    TMP DP  RH WIND       PRES   REMARKS
ROSWELL        FAIR      77  62  59 S6        30.09R
ARTESIA        FAIR      79  68  69 SE9       30.09R
CARLSBAD       FAIR      77  68  73 S9        30.06S
HOBBS          FAIR      77  64  65 S7        30.12R


$$




USA.gov is the U.S. government's official web portal to all federal, state and local government web resources and services.